User: anonymous   Login
Location: �chenoz-la-M�line
(47.6009°N, 6.1354°E)
Time: 20:16:43
(UTC+00:00)
Language:

STARLINK-2097 - Orbit

View from above orbital plane
View from above orbital plane
View from above satellite
View from above satellite

Ground track
Ground track

The orbit data is extracted from the following two-line orbital elements,

1 47377C 21005AE  21210.44148791 -.00020922  00000-0 -14021-2 0  2103
2 47377  53.0551  62.5047 0001699  97.1139 319.4862 15.06412668    11
Epoch (UTC): 29 July 2021 10:35:44
Eccentricity: 0.0001699
inclination: 53.0551°
perigee height: 546 km
apogee height: 548 km
right ascension of ascending node: 62.5047°
argument of perigee: 97.1139°
revolutions per day: 15.06412668
mean anomaly at epoch: 319.4862°
orbit number at epoch: 1

The dashed part of the orbit path shows where the satellite is in the earth's shadow,  

DLR